[[{"header":{"parameterUnit":"m.s-1","parameterCategory":1,"la1":30.2991,"la2":30.254,"lo1":-89.0895,"lo2":-89.0444,"dy":0.0017,"dx":0.0017,"nx":28,"ny":28,"refTime":"2024-12-02T09:00:00:Z","depth":0,"parameterNumber":2,"parameterNumberName":"U-component_of_WINDS"},"data":[0,0,0,0,0,0,0,0,0,0,0,0,0,0,0,0,0,0,0,0,0,0,0,0,0,0,0,0,0,0,0,0,0,0,0,0,0,0,0,0,0,0,0,0,0,0,0,0,0,0,0,0,0,0,0,0,0,0,-0.9727,-0.9726,0,-0.9693,-0.9693,-0.9692,-0.9632,-0.9631,-0.963,-0.9629,-0.9596,-0.9596,-0.9597,0,0,0,0,0,0,0,0,0,0,0,0,0,-0.974,-0.974,-0.9727,-0.9726,-0.9726,-0.9693,-0.9693,-0.9692,-0.9633,-0.9631,-0.963,-0.9628,-0.9596,-0.9596,-0.9597,0,0,0,0,0,0,0,0,0,0,0,0,0,-0.9724,-0.974,-0.9727,-0.9692,-0.9689,-0.9693,-0.9693,-0.9692,-0.9633,-0.9631,-0.9629,-0.9628,-0.9596,-0.9596,-0.9597,-0.9633,0,0,-0.9598,-0.9598,0,0,0,0,0,0,0,0,-0.9725,-0.9723,-0.9698,-0.9694,-0.9691,-0.9665,-0.9685,-0.9672,-0.9633,-0.9654,-0.9629,-0.9627,-0.9621,-0.9619,-0.9616,-0.9631,-0.963,-0.9598,-0.9598,-0.9598,-0.9598,0,0,0,0,0,0,0,-0.9726,-0.9724,-0.9713,-0.9697,-0.9693,-0.9679,-0.9674,-0.9683,-0.9648,-0.9652,-0.9648,-0.9644,-0.9618,-0.9616,-0.9615,-0.963,-0.9598,-0.9598,-0.9598,-0.9598,-0.9674,-0.9676,0,0,0,0,0,0,-0.9732,-0.9726,-0.9714,-0.9712,-0.9704,-0.968,-0.9675,-0.9675,-0.9647,-0.9641,-0.9646,-0.9642,-0.9617,-0.9615,-0.9614,-0.9656,-0.9598,-0.9598,-0.9598,-0.9672,-0.9674,-0.9676,0,0,0,0,0,0,-0.9732,-0.9731,-0.9716,-0.9718,-0.9715,-0.9681,-0.9682,-0.9675,-0.9673,-0.9643,-0.9636,-0.965,-0.9615,-0.9613,-0.9629,-0.9654,-0.9598,-0.9599,-0.967,-0.9673,-0.9675,-0.9739,0,0,0,0,0,0,-0.9733,-0.9732,-0.9745,-0.9718,-0.9715,-0.9731,-0.9683,-0.9676,-0.9674,-0.9668,-0.9645,-0.9639,-0.9614,-0.9629,-0.9629,-0.9653,-0.9599,-0.9668,-0.9671,-0.9675,-0.9735,-0.9744,-0.9752,0,0,0,0,0,-0.9734,-0.9764,-0.9746,-0.9745,-0.973,-0.9733,-0.9731,-0.97,-0.9676,-0.9689,-0.967,-0.964,-0.965,-0.9631,-0.9631,-0.9655,-0.9666,-0.967,-0.9674,-0.9731,-0.9742,-0.9751,0,0,0,0,0,0,-0.9795,-0.976,-0.974,-0.9763,-0.9751,-0.9723,-0.9739,-0.9713,-0.9708,-0.9703,-0.9666,-0.9661,-0.9682,-0.9669,-0.9648,-0.9689,-0.9654,-0.9658,-0.9697,-0.9707,-0.9715,-0.9719,-0.9599,0,0,0,0,0,-0.9812,-0.9816,-0.9785,-0.9808,-0.9804,-0.9772,-0.9772,-0.9749,-0.9736,-0.9731,-0.9713,-0.9702,-0.9702,-0.9704,-0.9703,-0.9732,-0.9727,-0.9749,-0.9757,-0.9764,-0.9769,-0.9785,-0.9795,-0.969,-0.969,-0.969,0,0,-0.9845,-0.9827,-0.9832,-0.982,-0.9809,-0.9815,-0.9769,-0.9777,-0.9781,-0.9733,-0.9746,-0.9732,-0.9717,-0.9741,-0.975,-0.9731,-0.9797,-0.977,-0.9775,-0.9776,-0.979,-0.98,-0.9809,-0.9693,-0.9692,-0.9692,0,0,-0.991,-0.9896,-0.9914,-0.9904,-0.9887,-0.9865,-0.987,-0.9845,-0.9834,-0.9847,-0.9811,-0.9816,-0.9818,-0.9809,-0.9805,-0.9866,-0.984,-0.9867,-0.9911,-0.9928,-0.9936,-0.9943,-0.9967,-0.9975,-0.9871,-0.9872,-0.9872,0,-0.9955,-0.9962,-0.9927,-0.9938,-0.9934,-0.989,-0.9909,-0.99,-0.9884,-0.9883,-0.9862,-0.9864,-0.9851,-0.9872,-0.9887,-0.9884,-0.9889,-0.987,-0.9937,-0.9944,-0.995,-0.9972,-0.9981,-0.9875,-0.9875,-0.9874,-0.9874,0,-1.0018,-1.0023,-1.004,-1.0026,-1.0024,-1.0039,-1.0007,-1.0009,-0.9987,-0.9968,-0.9983,-0.9965,-0.996,-0.9963,-0.9941,-0.9981,-0.997,-0.9944,-0.9908,-0.9965,-0.9985,-0.9993,-0.988,-0.9879,-0.9878,-0.9877,0,0,-1.0122,-1.0088,-1.0095,-1.0088,-1.0066,-1.007,-1.0082,-1.0077,-1.0081,-1.0071,-1.0082,-1.0084,-1.006,-1.0055,-1.0031,-1.0045,-1.0097,-1.0017,-1.0016,-1.0034,-1.0142,-1.0164,-1.0174,-1.0079,-1.008,-1.0081,-1.0144,0,-1.0183,-1.0203,-1.0173,-1.02,-1.0206,-1.0163,-1.0175,-1.0163,-1.0146,-1.0148,-1.0129,-1.0132,-1.0099,-1.0096,-1.0107,-1.0089,-1.0119,-1.0083,-1.009,-1.0091,-1.0097,-1.0184,-1.0207,-1.0267,-1.0152,-1.0153,-1.0154,0,-1.0258,-1.0252,-1.028,-1.0257,-1.0258,-1.0268,-1.0262,-1.0264,-1.025,-1.0236,-1.0231,-1.0203,-1.0215,-1.0179,-1.0196,-1.0172,-1.0173,-1.0164,-1.0166,-1.0166,-1.0127,-1.0189,-1.0285,-1.0295,-1.0166,-1.0165,-1.0164,0,-1.0333,-1.0332,-1.0348,-1.0344,-1.0316,-1.0325,-1.0314,-1.0298,-1.0297,-1.0291,-1.0291,-1.0286,-1.0284,-1.0282,-1.0254,-1.023,-1.0275,-1.0236,-1.0265,-1.0266,-1.0278,-1.0278,-1.0378,-1.0276,-1.0275,-1.0275,-1.0275,0,-1.0406,-1.0426,-1.0382,-1.0393,-1.0413,-1.0377,-1.0399,-1.0384,-1.037,-1.0378,-1.034,-1.0348,-1.031,-1.0314,-1.0292,-1.031,-1.0309,-1.0299,-1.0294,-1.0304,-1.0305,-1.0305,-1.0301,-1.0278,-1.0277,-1.0277,-1.0276,0,-1.0495,-1.0466,-1.0482,-1.0454,-1.0448,-1.0465,-1.0442,-1.0451,-1.0431,-1.0441,-1.0441,-1.041,-1.0413,-1.0385,-1.0382,-1.0367,-1.0396,-1.0382,-1.0401,-1.0398,-1.0429,-1.0428,-1.0534,-1.0547,-1.0435,-1.0436,-1.0437,0,-1.0544,-1.0558,-1.0532,-1.0534,-1.0525,-1.0529,-1.0528,-1.0493,-1.0494,-1.0479,-1.049,-1.049,-1.0488,-1.0494,-1.0472,-1.047,-1.0457,-1.0494,-1.0457,-1.0467,-1.046,-1.046,-1.0462,-1.0503,-1.0505,-1.0506,-1.0507,0,-1.0635,-1.062,-1.062,-1.0615,-1.0614,-1.0609,-1.0601,-1.0605,-1.0567,-1.0569,-1.0572,-1.057,-1.0568,-1.0568,-1.0562,-1.0551,-1.0524,-1.0518,-1.0525,-1.0537,-1.0548,-1.0544,-1.0425,-1.0517,-1.0516,-1.0515,-1.0514,-1.0514,-1.0707,-1.0717,-1.0701,-1.0702,-1.0692,-1.0686,-1.0693,-1.0674,-1.0675,-1.067,-1.0649,-1.0656,-1.0642,-1.0631,-1.0623,-1.0628,-1.061,-1.062,-1.0622,-1.0626,-1.0633,-1.0546,-1.0626,-1.0626,-1.0625,-1.0625,-1.0625,0,-1.0798,-1.0785,-1.0786,-1.0776,-1.0777,-1.0749,-1.0739,-1.0742,-1.0748,-1.0737,-1.0735,-1.0739,-1.0739,-1.0717,-1.0715,-1.0723,-1.0711,-1.0724,-1.0724,-1.0723,-1.0648,-1.0643,-1.0735,-1.0735,-1.0735,-1.0735,-1.0735,-1.0735,-1.0845,-1.0863,-1.0846,-1.0858,-1.0845,-1.0851,-1.0848,-1.0842,-1.0833,-1.0838,-1.0838,-1.0823,-1.0808,-1.0805,-1.0804,-1.0798,-1.08,-1.0818,-1.0808,-1.0738,-1.0728,-1.0718,-1.0713,-1.0818,-1.0818,-1.0882,-1.0883,-1.0883]},{"header":{"parameterUnit":"m.s-1","parameterCategory":1,"la1":30.2991,"la2":30.254,"lo1":-89.0895,"lo2":-89.0444,"dy":0.0017,"dx":0.0017,"nx":28,"ny":28,"refTime":"2024-12-02T09:00:00:Z","depth":0,"parameterNumber":3,"parameterNumberName":"V-component_of_WINDS"},"data":[0,0,0,0,0,0,0,0,0,0,0,0,0,0,0,0,0,0,0,0,0,0,0,0,0,0,0,0,0,0,0,0,0,0,0,0,0,0,0,0,0,0,0,0,0,0,0,0,0,0,0,0,0,0,0,0,0,0,-1.3765,-1.3765,0,-1.3811,-1.3811,-1.3812,-1.3819,-1.3819,-1.3818,-1.3818,-1.3864,-1.3865,-1.3867,0,0,0,0,0,0,0,0,0,0,0,0,0,-1.3683,-1.3685,-1.3765,-1.3765,-1.3766,-1.381,-1.3811,-1.3812,-1.3819,-1.3819,-1.3818,-1.3818,-1.3863,-1.3865,-1.3867,0,0,0,0,0,0,0,0,0,0,0,0,0,-1.3723,-1.3685,-1.3765,-1.3775,-1.3776,-1.381,-1.3811,-1.3812,-1.3819,-1.3819,-1.3818,-1.3817,-1.3862,-1.3865,-1.3867,-1.3894,0,0,-1.3874,-1.3875,0,0,0,0,0,0,0,0,-1.3721,-1.3726,-1.3773,-1.3774,-1.3776,-1.3809,-1.3799,-1.3839,-1.3819,-1.3803,-1.3818,-1.3817,-1.3846,-1.3849,-1.3859,-1.3896,-1.3898,-1.3875,-1.3876,-1.3877,-1.3878,0,0,0,0,0,0,0,-1.3718,-1.3724,-1.3783,-1.3774,-1.3776,-1.3777,-1.3782,-1.3807,-1.3827,-1.3804,-1.3805,-1.381,-1.3846,-1.3857,-1.386,-1.3898,-1.3874,-1.3877,-1.3878,-1.3879,-1.396,-1.3961,0,0,0,0,0,0,-1.3713,-1.3722,-1.3781,-1.3784,-1.3746,-1.3779,-1.3785,-1.3799,-1.3827,-1.3831,-1.3811,-1.3811,-1.3853,-1.3858,-1.3862,-1.3896,-1.3877,-1.3879,-1.3881,-1.3959,-1.396,-1.3961,0,0,0,0,0,0,-1.3712,-1.3719,-1.378,-1.3753,-1.3761,-1.3781,-1.3797,-1.38,-1.381,-1.3832,-1.3835,-1.3818,-1.3853,-1.3859,-1.3886,-1.3898,-1.388,-1.3882,-1.3959,-1.396,-1.3961,-1.3964,0,0,0,0,0,0,-1.3709,-1.3718,-1.3728,-1.3753,-1.3762,-1.3803,-1.3798,-1.3801,-1.3815,-1.3815,-1.3839,-1.3843,-1.3853,-1.3882,-1.3888,-1.3901,-1.3884,-1.3958,-1.3959,-1.396,-1.3963,-1.3965,-1.3967,0,0,0,0,0,-1.3706,-1.3727,-1.3729,-1.3736,-1.3776,-1.3804,-1.3809,-1.382,-1.3816,-1.3826,-1.384,-1.3842,-1.3895,-1.3885,-1.3892,-1.3905,-1.3957,-1.3959,-1.396,-1.3962,-1.3965,-1.3967,0,0,0,0,0,0,-1.3702,-1.373,-1.3733,-1.3762,-1.3781,-1.3805,-1.3819,-1.3823,-1.3842,-1.3842,-1.3855,-1.386,-1.3887,-1.3899,-1.3887,-1.3933,-1.3926,-1.3929,-1.3925,-1.3927,-1.3929,-1.3927,-1.3886,0,0,0,0,0,-1.3705,-1.3725,-1.3749,-1.3772,-1.3781,-1.3799,-1.3811,-1.3818,-1.3838,-1.3846,-1.3861,-1.388,-1.3901,-1.3914,-1.3935,-1.3964,-1.397,-1.3977,-1.3978,-1.398,-1.3983,-1.4001,-1.4004,-1.3967,-1.3967,-1.3967,0,0,-1.371,-1.3728,-1.374,-1.3772,-1.3787,-1.3808,-1.3805,-1.3827,-1.3843,-1.3849,-1.3876,-1.3888,-1.391,-1.3939,-1.3952,-1.3949,-1.3995,-1.3982,-1.3983,-1.3985,-1.4003,-1.4006,-1.4009,-1.3968,-1.3968,-1.3967,0,0,-1.3731,-1.3746,-1.3768,-1.3784,-1.3807,-1.3819,-1.3824,-1.3848,-1.3856,-1.3884,-1.3889,-1.3908,-1.3944,-1.3959,-1.3972,-1.4,-1.4003,-1.4006,-1.4016,-1.4034,-1.4037,-1.4039,-1.4051,-1.4054,-1.4008,-1.4008,-1.4008,0,-1.3735,-1.3768,-1.3779,-1.3802,-1.3816,-1.3822,-1.3845,-1.3859,-1.3888,-1.3898,-1.3894,-1.3939,-1.3954,-1.3988,-1.3994,-1.4004,-1.4011,-1.4004,-1.4035,-1.4038,-1.4041,-1.4052,-1.4056,-1.4008,-1.4008,-1.4008,-1.4008,0,-1.3772,-1.3794,-1.3809,-1.3838,-1.3853,-1.3876,-1.3891,-1.3905,-1.3911,-1.3923,-1.3951,-1.3969,-1.3994,-1.4002,-1.4008,-1.4037,-1.4034,-1.4032,-1.4026,-1.4045,-1.4055,-1.4059,-1.4009,-1.4009,-1.4009,-1.4009,0,0,-1.3792,-1.3827,-1.3833,-1.3846,-1.3873,-1.389,-1.3913,-1.3938,-1.395,-1.397,-1.399,-1.402,-1.4019,-1.4033,-1.404,-1.4055,-1.4078,-1.4052,-1.4052,-1.4057,-1.4112,-1.4115,-1.412,-1.4079,-1.408,-1.4081,-1.4111,0,-1.3817,-1.3859,-1.3871,-1.3906,-1.3928,-1.3934,-1.3954,-1.3972,-1.3984,-1.4004,-1.4016,-1.4038,-1.4034,-1.4043,-1.4058,-1.4072,-1.4089,-1.407,-1.4099,-1.41,-1.4095,-1.4125,-1.4127,-1.4155,-1.4115,-1.4116,-1.4116,0,-1.3853,-1.3874,-1.3912,-1.3937,-1.3946,-1.3964,-1.3989,-1.4007,-1.4028,-1.4035,-1.4052,-1.4058,-1.4082,-1.4073,-1.4107,-1.4094,-1.4106,-1.4115,-1.4116,-1.412,-1.411,-1.4132,-1.4164,-1.4169,-1.4123,-1.4122,-1.4122,0,-1.3866,-1.3904,-1.3932,-1.3943,-1.3972,-1.3985,-1.3997,-1.4018,-1.4032,-1.4053,-1.4063,-1.4086,-1.4099,-1.4117,-1.4129,-1.4121,-1.4163,-1.4154,-1.417,-1.417,-1.418,-1.4179,-1.4217,-1.4185,-1.4185,-1.4185,-1.4185,0,-1.3894,-1.3918,-1.3938,-1.3956,-1.3982,-1.3995,-1.4021,-1.4033,-1.4052,-1.4072,-1.4078,-1.4096,-1.4111,-1.4131,-1.4141,-1.4168,-1.4173,-1.4181,-1.4183,-1.4181,-1.4181,-1.4191,-1.419,-1.4186,-1.4186,-1.4186,-1.4185,0,-1.3914,-1.3929,-1.396,-1.3985,-1.3992,-1.4011,-1.4032,-1.4049,-1.4061,-1.4086,-1.4093,-1.4111,-1.4136,-1.415,-1.418,-1.4187,-1.4218,-1.4219,-1.4211,-1.4213,-1.4229,-1.4228,-1.4275,-1.4283,-1.4244,-1.4245,-1.4245,0,-1.3932,-1.395,-1.3978,-1.3992,-1.4005,-1.4028,-1.4043,-1.4056,-1.4072,-1.4097,-1.4112,-1.4137,-1.4158,-1.4197,-1.4213,-1.4236,-1.4239,-1.4254,-1.4242,-1.424,-1.4241,-1.4241,-1.4243,-1.4256,-1.4256,-1.4257,-1.4257,0,-1.3963,-1.3969,-1.3992,-1.4017,-1.4035,-1.4055,-1.4074,-1.4086,-1.4102,-1.4119,-1.4145,-1.4161,-1.4193,-1.4218,-1.4243,-1.4256,-1.426,-1.426,-1.4265,-1.4264,-1.426,-1.4265,-1.4219,-1.4259,-1.4259,-1.4259,-1.4259,-1.4259,-1.3983,-1.4001,-1.4023,-1.4048,-1.4064,-1.4083,-1.4101,-1.4115,-1.4137,-1.4164,-1.417,-1.4198,-1.4219,-1.4253,-1.4266,-1.4288,-1.4285,-1.4292,-1.4295,-1.4297,-1.4298,-1.4255,-1.4292,-1.4292,-1.4292,-1.4292,-1.4292,0,-1.4016,-1.4031,-1.4054,-1.4082,-1.4101,-1.4103,-1.4125,-1.4141,-1.4166,-1.4185,-1.4206,-1.4236,-1.4261,-1.4279,-1.4304,-1.4318,-1.432,-1.4324,-1.4324,-1.4327,-1.4298,-1.4292,-1.4322,-1.4322,-1.4322,-1.4322,-1.4322,-1.4322,-1.4036,-1.4065,-1.4075,-1.4113,-1.4127,-1.4155,-1.4168,-1.4185,-1.4201,-1.4235,-1.4255,-1.4267,-1.4286,-1.4313,-1.4336,-1.434,-1.435,-1.4354,-1.4359,-1.4332,-1.4329,-1.4326,-1.4321,-1.4356,-1.4356,-1.4387,-1.4387,-1.4387]}]]